Weather reports worldwide

Advertisment
St. Athan, United Kingdom (3716): temperature & dewpoint: 13.02.2020 10:00:00 - 19.02.2020 10:00:00 (GMT)St. Athan, United Kingdom (3716): temperature -20cm & temperature -100cm: 13.02.2020 10:00:00 - 19.02.2020 10:00:00 (GMT)St. Athan, United Kingdom (3716): wind speed & gusts: 13.02.2020 10:00:00 - 19.02.2020 10:00:00 (GMT)St. Athan, United Kingdom (3716): wind direction: 13.02.2020 10:00:00 - 19.02.2020 10:00:00 (GMT)St. Athan, United Kingdom (3716): reduced air pressure: 13.02.2020 10:00:00 - 19.02.2020 10:00:00 (GMT)St. Athan, United Kingdom (3716): visibility: 13.02.2020 10:00:00 - 19.02.2020 10:00:00 (GMT)St. Athan, United Kingdom (3716): sunshine duration: 13.02.2020 10:00:00 - 19.02.2020 10:00:00 (GMT)St. Athan, United Kingdom (3716): precipitation: 13.02.2020 10:00:00 - 19.02.2020 10:00:00 (GMT)
Date & Time tt [°C] td [°C] tt -20cm [°C] tt -100cm [°C] ff [km/h] ff [kn] fx [km/h] fx [kn] dd ppp [hPa] vv [km] sd [min] rr [mm]
19.02.2020 10:00:00 6,7 5,5 - - 11 6 - - WSW 1021,2 11 0 0,8
19.02.2020 09:00:00 6,9 5,0 7,2 8,2 22 12 - - W 1021,5 6 0 0,2
19.02.2020 08:00:00 7,1 3,3 - - 15 8 - - W 1021,3 16 0 0,0
19.02.2020 07:00:00 6,9 3,0 - - 16 9 - - W 1020,9 23 0 0,0
19.02.2020 06:00:00 6,6 2,3 - - 18 10 - - W 1021,1 24 0 -
19.02.2020 05:00:00 6,2 2,0 - - 24 13 - - W 1021,2 23 0 -
19.02.2020 04:00:00 6,2 1,6 - - 28 15 - - WNW 1020,8 28 0 0,0
19.02.2020 03:00:00 6,1 1,0 - - 28 15 46 25 WNW 1020,4 27 0 0,0
19.02.2020 02:00:00 5,7 1,0 - - 35 19 52 28 WNW 1020,2 28 0 0,0
19.02.2020 01:00:00 5,8 1,5 - - 35 19 52 28 WNW 1019,9 27 0 0,0
19.02.2020 00:00:00 5,8 0,6 - - 34 18 46 25 WNW 1019,1 27 - 0,0
18.02.2020 23:00:00 6,0 1,1 - - 29 16 46 25 WNW 1018,7 26 0 0,0
18.02.2020 22:00:00 6,0 1,1 - - 35 19 54 29 WNW 1018,5 27 0 0,0
18.02.2020 21:00:00 6,5 2,1 - - 29 16 52 28 WNW 1017,6 29 0 0,0
18.02.2020 20:00:00 6,1 1,6 - - 31 17 67 36 WNW 1016,4 35 0 0,2
18.02.2020 19:00:00 7,7 2,7 - - 35 19 59 32 W 1015,8 25 0 0,0
18.02.2020 18:00:00 7,8 4,2 - - 29 16 65 35 W 1015,3 19 0 0,4
18.02.2020 17:00:00 8,4 5,1 - - 35 19 67 36 W 1015,4 15 0 0,0
18.02.2020 16:00:00 8,3 6,0 - - 46 25 68 37 WSW 1015,5 7 0 0,8
18.02.2020 15:00:00 8,7 6,2 - - 39 21 57 31 WSW 1016,8 15 0 0,0
18.02.2020 14:00:00 9,1 6,3 - - 34 18 61 33 WSW 1017,5 15 12 0,0
18.02.2020 13:00:00 8,6 5,5 - - 35 19 57 31 W 1018,1 23 30 0,0
18.02.2020 12:00:00 9,0 5,1 - - 35 19 61 33 WSW 1019,0 24 48 0,0
18.02.2020 11:00:00 9,2 5,5 - - 41 22 65 35 WSW 1018,8 20 60 0,0
18.02.2020 10:00:00 8,6 5,4 - - 37 20 59 32 WSW 1019,2 18 30 -
18.02.2020 09:00:00 7,9 4,9 7,4 8,2 39 21 54 29 WSW 1019,3 19 0 0,0
18.02.2020 08:00:00 7,3 4,9 - - 31 17 - - WSW 1019,7 17 0 0,0
18.02.2020 07:00:00 6,6 3,9 - - 26 14 - - W 1019,7 21 0 0,2
18.02.2020 06:00:00 6,8 3,4 - - 24 13 48 26 W 1019,7 24 0 -
18.02.2020 05:00:00 6,7 2,8 - - 24 13 - - W 1019,4 27 0 0,0
18.02.2020 04:00:00 6,2 3,8 - - 31 17 46 25 W 1019,0 26 0 0,0
18.02.2020 03:00:00 4,9 3,5 - - 34 18 65 35 W 1019,4 13 0 1,4
18.02.2020 02:00:00 6,3 3,4 - - 29 16 52 28 W 1019,3 25 0 0,0
18.02.2020 01:00:00 6,8 3,1 - - 31 17 59 32 W 1019,2 27 0 0,0
18.02.2020 00:00:00 6,7 1,8 - - 31 17 52 28 W 1018,4 24 - -
17.02.2020 23:00:00 6,9 2,1 - - 29 16 54 29 W 1017,7 23 0 0,0
17.02.2020 22:00:00 6,6 2,5 - - 42 23 59 32 W 1017,4 22 0 0,0
17.02.2020 21:00:00 6,5 2,5 - - 29 16 52 28 W 1016,9 23 0 0,0
17.02.2020 20:00:00 6,7 1,5 - - 31 17 52 28 W 1016,5 23 0 0,0
17.02.2020 19:00:00 6,8 2,3 - - 31 17 48 26 W 1015,2 27 0 0,0
17.02.2020 18:00:00 5,4 3,2 - - 22 12 57 31 W 1014,3 22 0 1,6
17.02.2020 17:00:00 7,1 4,6 - - 28 15 61 33 W 1013,1 3,6 0 0,4
17.02.2020 16:00:00 7,8 4,4 - - 35 19 59 32 W 1012,3 19 6 0,2
17.02.2020 15:00:00 9,0 4,8 - - 37 20 57 31 W 1011,1 17 42 0,0
17.02.2020 14:00:00 9,3 5,7 - - 31 17 54 29 W 1010,4 9 42 0,0
17.02.2020 13:00:00 9,5 5,5 - - 37 20 59 32 W 1009,5 20 42 0,0
17.02.2020 12:00:00 9,6 6,5 - - 34 18 52 28 W 1008,6 13 36 0,0
17.02.2020 11:00:00 9,3 6,5 - - 34 18 55 30 W 1007,4 13 18 0,0
17.02.2020 10:00:00 8,1 6,4 - - 37 20 61 33 W 1006,1 13 18 1,6
17.02.2020 09:00:00 7,7 5,7 7,7 8,0 37 20 54 29 WSW 1005,1 15 0 0,0
17.02.2020 08:00:00 6,6 4,0 - - 41 22 72 39 WSW 1005,2 10 0 0,4
17.02.2020 07:00:00 7,3 3,4 - - 37 20 59 32 WSW 1004,0 17 0 0,2
17.02.2020 06:00:00 5,5 3,1 - - 29 16 57 31 WSW 1004,2 17 0 1,4
17.02.2020 05:00:00 5,3 2,3 - - 34 18 83 45 W 1004,2 20 0 0,4
17.02.2020 04:00:00 7,2 3,3 - - 35 19 50 27 SW 1004,1 7 0 0,0
17.02.2020 03:00:00 7,3 3,0 - - 37 20 76 41 SW 1004,4 20 0 0,0
17.02.2020 02:00:00 7,6 2,8 - - 42 23 72 39 WSW 1004,3 20 0 0,0
17.02.2020 01:00:00 7,7 2,0 - - 54 29 83 45 WSW 1004,0 20 0 0,0
17.02.2020 00:00:00 7,7 2,6 - - 41 22 76 41 WSW 1003,7 13 - 0,0
16.02.2020 23:00:00 7,6 1,6 - - 46 25 78 42 WSW 1002,9 16 0 0,0
16.02.2020 22:00:00 7,2 2,0 - - 46 25 70 38 WSW 1002,0 17 0 0,0
16.02.2020 21:00:00 4,6 2,2 - - 41 22 93 50 WSW 1001,0 17 0 1,2
16.02.2020 20:00:00 5,7 2,2 - - 48 26 83 45 W 999,7 2,6 0 0,4
16.02.2020 19:00:00 6,4 1,5 - - 50 27 98 53 WSW 998,2 20 0 1,2
16.02.2020 18:00:00 7,8 1,7 - - 52 28 74 40 WSW 996,8 18 0 0,0
16.02.2020 17:00:00 8,3 3,9 - - 44 24 70 38 WSW 995,5 16 12 0,0
16.02.2020 16:00:00 8,6 3,6 - - 44 24 70 38 WSW 994,5 17 54 0,0
16.02.2020 15:00:00 8,4 4,8 - - 42 23 67 36 WSW 993,7 21 24 0,0
16.02.2020 14:00:00 7,6 4,7 - - 44 24 76 41 WSW 992,8 25 0 0,2
16.02.2020 13:00:00 7,2 4,7 - - 54 29 80 43 WSW 993,2 4,1 0 1,2
16.02.2020 12:00:00 7,8 5,3 - - 39 21 76 41 WSW 992,4 12 0 0,2
16.02.2020 11:00:00 8,4 4,9 - - 48 26 70 38 WSW 991,5 20 0 0,4
16.02.2020 10:00:00 8,7 5,8 - - 46 25 68 37 WSW 991,6 4,7 0 0,2
16.02.2020 09:00:00 8,7 7,1 8,5 8,0 35 19 59 32 WSW 991,7 22 0 1,0
16.02.2020 08:00:00 8,5 7,7 - - 28 15 50 27 WSW 991,5 15 0 0,0
16.02.2020 07:00:00 7,9 7,4 - - 22 12 55 30 W 990,8 10 0 1,2
16.02.2020 06:00:00 8,1 7,5 - - 37 20 55 30 W 990,9 1,8 0 2,6
16.02.2020 05:00:00 8,8 8,5 - - 28 15 48 26 W 989,5 2,3 0 2,8
16.02.2020 04:00:00 9,2 8,6 - - 29 16 63 34 W 988,6 2,3 0 8,0
16.02.2020 03:00:00 12,0 11,0 - - 42 23 65 35 SW 987,8 3,2 0 2,4
16.02.2020 02:00:00 12,2 11,0 - - 41 22 61 33 SW 988,5 4,2 0 1,6
16.02.2020 01:00:00 12,4 10,9 - - 41 22 70 38 SSW 989,4 6 0 0,4
16.02.2020 00:00:00 12,6 10,5 - - 46 25 67 36 SW 990,0 16 - 0,0
15.02.2020 23:00:00 13,1 10,6 - - 42 23 67 36 SSW 990,7 30 0 0,4
15.02.2020 22:00:00 12,2 10,7 - - 28 15 52 28 SSW 992,7 7 0 1,0
15.02.2020 21:00:00 12,4 10,6 - - 41 22 67 36 WSW 994,4 6 0 0,2
15.02.2020 20:00:00 12,5 10,5 - - 50 27 83 45 WSW 994,4 12 0 0,0
15.02.2020 19:00:00 13,3 10,6 - - 57 31 81 44 WSW 994,1 19 0 0,0
15.02.2020 18:00:00 12,1 10,6 - - 39 21 65 35 SW 993,5 4,5 0 0,6
15.02.2020 17:00:00 11,9 10,0 - - 41 22 65 35 SW 992,9 21 0 0,0
15.02.2020 16:00:00 11,9 9,8 - - 41 22 68 37 SSW 993,6 21 0 0,0
15.02.2020 15:00:00 12,3 9,7 - - 37 20 63 34 SSW 995,1 20 0 0,6
15.02.2020 14:00:00 11,5 9,4 - - 31 17 61 33 SSW 997,0 6 0 1,0
15.02.2020 13:00:00 11,9 9,6 - - 29 16 57 31 SSW 998,8 17 0 0,4
15.02.2020 12:00:00 11,9 9,7 - - 29 16 54 29 SSW 1000,6 10 0 1,0
15.02.2020 11:00:00 11,8 9,8 - - 31 17 50 27 SSW 1001,9 10 0 1,0
15.02.2020 10:00:00 11,6 9,6 - - 28 15 - - SSW 1002,8 17 0 0,0
15.02.2020 09:00:00 11,3 9,5 7,0 8,0 28 15 52 28 SSW 1003,9 18 0 0,0
15.02.2020 08:00:00 11,4 9,6 - - 34 18 50 27 SSW 1004,8 35 0 0,2
15.02.2020 07:00:00 11,1 9,8 - - 22 12 - - SSW 1005,3 15 0 0,0
15.02.2020 06:00:00 11,3 9,7 - - 22 12 - - SSW 1006,3 60 0 0,0
15.02.2020 05:00:00 9,7 9,2 - - 16 9 - - SSE 1007,2 8 0 0,0
15.02.2020 04:00:00 9,2 8,7 - - 13 7 - - SSE 1008,6 40 0 0,2
15.02.2020 03:00:00 8,6 8,1 - - 9 5 - - SSE 1010,3 25 0 0,0
15.02.2020 02:00:00 9,0 8,2 - - 5 3 - - S 1011,3 7 0 0,2
15.02.2020 01:00:00 8,4 7,5 - - 5 3 - - SSE 1012,0 17 0 0,0
15.02.2020 00:00:00 9,4 7,9 - - 15 8 67 36 SW 1012,9 16 - 0,0
14.02.2020 23:00:00 9,1 7,8 - - 11 6 - - SW 1013,0 18 0 0,0
14.02.2020 22:00:00 8,9 8,1 - - 11 6 - - W 1013,7 13 0 0,2
14.02.2020 21:00:00 8,7 7,8 - - 9 5 - - W 1013,7 19 0 0,8
14.02.2020 20:00:00 10,0 9,2 - - 13 7 - - W 1013,9 6 0 2,0
14.02.2020 19:00:00 10,0 9,3 - - 9 5 - - W 1014,0 14 0 1,2
14.02.2020 18:00:00 9,8 9,3 - - 4 2 - - SW 1013,6 26 0 0,0
14.02.2020 17:00:00 10,1 9,6 - - 9 5 - - SW 1013,7 15 0 1,0
14.02.2020 16:00:00 10,2 9,5 - - 11 6 - - SW 1013,6 9 0 3,0
14.02.2020 15:00:00 10,7 9,1 - - 16 9 - - SSW 1013,8 11 0 0,0
14.02.2020 14:00:00 10,9 8,6 - - 24 13 - - SW 1013,9 35 0 0,0
14.02.2020 13:00:00 10,3 8,2 - - 13 7 - - S 1014,2 26 0 0,0
14.02.2020 12:00:00 10,3 7,6 - - 21 11 - - SSW 1014,9 19 0 0,0
14.02.2020 11:00:00 9,3 6,2 - - 15 8 - - S 1015,5 14 0 0,0
14.02.2020 10:00:00 8,1 5,3 - - 13 7 - - SSW 1015,6 18 12 0,0
14.02.2020 09:00:00 8,1 5,7 6,7 8,0 11 6 - - S 1015,9 23 30 0,0
14.02.2020 08:00:00 1,6 1,0 - - 5 3 - - W 1016,1 16 0 0,0
14.02.2020 07:00:00 1,9 1,0 - - 2 1 - - E 1015,4 12 0 0,0
14.02.2020 06:00:00 1,9 0,7 - - 5 3 - - SE 1015,5 9 0 0,0
14.02.2020 05:00:00 3,3 1,2 - - 5 3 - - S 1015,5 17 0 0,0
14.02.2020 04:00:00 5,4 4,1 - - 8 4 - - SSW 1015,1 40 0 0,0
14.02.2020 03:00:00 4,1 3,4 - - 4 2 - - SSW 1015,2 28 0 0,0
14.02.2020 02:00:00 4,1 2,6 - - 5 3 - - NNW 1014,8 20 0 0,0
14.02.2020 01:00:00 4,5 2,7 - - 8 4 - - NW 1014,6 19 0 0,0
14.02.2020 00:00:00 4,6 2,2 - - 8 4 - - W 1013,5 28 - 0,0
13.02.2020 23:00:00 5,9 3,4 - - 13 7 - - WNW 1012,5 35 0 0,0
13.02.2020 22:00:00 5,7 3,1 - - 11 6 - - W 1011,7 16 0 0,0
13.02.2020 21:00:00 6,3 3,3 - - 11 6 - - W 1010,0 22 0 0,0
13.02.2020 20:00:00 7,4 4,2 - - 13 7 - - NW 1008,1 40 0 0,0
13.02.2020 19:00:00 8,1 5,2 - - 21 11 - - WNW 1006,4 17 0 0,2
13.02.2020 18:00:00 8,2 6,3 - - 21 11 - - W 1004,6 11 0 0,0
13.02.2020 17:00:00 8,3 5,1 - - 24 13 - - WNW 1002,0 17 12 0,0
13.02.2020 16:00:00 8,6 4,4 - - 29 16 - - WNW 1000,4 25 6 0,0
13.02.2020 15:00:00 8,7 5,4 - - 28 15 48 26 W 998,5 23 18 0,0
13.02.2020 14:00:00 8,8 5,0 - - 31 17 50 27 WNW 995,9 35 24 0,2
13.02.2020 13:00:00 9,8 5,3 - - 34 18 54 29 W 993,8 24 60 0,0
13.02.2020 12:00:00 9,3 5,5 - - 31 17 50 27 W 992,1 27 54 0,0
13.02.2020 11:00:00 8,8 5,6 - - 28 15 - - W 990,1 24 42 0,0
13.02.2020 10:00:00 7,4 4,7 - - 22 12 - - WSW 989,1 35 6 0,0

tt = temperature
td = dewpoint
tt -20cm = temperature -20cm
tt -100cm = temperature -100cm
ff = wind speed
fx = gusts
dd = wind direction
ppp = reduced air pressure
vv = visibility
sd = sunshine duration
rr = precipitation

Next stations